Погода в Байкальске

Россия / Иркутская область     51°31′22″N   104°08′59″E
темп.,
°C
ветер,
м/с
пор.,
м/с
влажн.,
%
обл.,
%
осадки,
мм/ч
давл.,
гПа
погр.,
м
27 февраля, сб
сб2723:00−16з3488100 0.3 1026110
02:00−18юз238398 0.4 103024
05:00−19ююз347933 0.0 103322
08:00−20з118649 0.1 103632
11:00−19сз2378100 0.2 1037636
14:00−19св217981 0.3 1035281
17:00−19ссв018529 0.1 1035120
20:00−20ююз228563 0.1 103723
28 февраля, вс
вс2823:00−21юз227982 0.0 103920
02:00−22зюз127859 0.0 104020
05:00−23юз12740 0.0 104120
08:00−23юз11740 0.0 104220
11:00−20с11812 0.0 1041111
14:00−19с11921 0.0 1038190
17:00−18юз119566 0.1 1037102
20:00−19юз228483 0.2 103920
1 марта, пн
пн123:00−20юз12813 0.0 104020
02:00−21юз01812 0.0 103920
05:00−21зюз117737 0.0 103720
08:00−21зюз117626 0.0 103620
11:00−17ссв21949 0.0 1032104
14:00−15св229345 0.0 1026153
17:00−15св229789 0.0 1023103
20:00−15всв129191 0.1 102232
2 марта, вт
вт223:00−15всв119099 0.0 102042
02:00−15вюв118684 0.0 101928
05:00−15вюв118670 0.0 101722
08:00−14юв128582 0.0 101623
11:00−9всв228838 0.0 101291
14:00−9вюв129661 0.1 1010181
17:00−8всв2391100 0.1 1010277
20:00−8ю228289 0.4 101321
3 марта, ср
ср323:00−10зюз118361 0.0 101521
02:00−12з119779 0.2 101521
05:00−13ююз1194100 0.3 101620
08:00−14сз1197100 0.5 101726
11:00−13ссв2294100 0.1 1015190
14:00−13всв118899 0.3 1013260
17:00−13ю019295 0.1 1012117
20:00−13юз119497 0.1 101542